Location: Napier
(39.4830°S, 176.9170°E)
Time: 16:30:12
(UTC+12:00)

Cosmos 1515 Rocket - Pass Details

Date: 24 January 2019
Orbit: 605 x 631 km, 82.5° (Epoch: 17 April)

Event Time Altitude Azimuth Distance (km) Brightness Sun altitude
Exits shadow 21:23:49 - 9° (N) 2,880 6.6 -8.8°
Reaches altitude 10° 21:26:00 10° 14° (NNE) 2,018 5.8 -9.2°
Maximum altitude 21:30:18 47° 87° (E) 848 3.9 -9.9°
Drops below altitude 10° 21:34:39 10° 160° (SSE) 2,043 6.4 -10.5°
Sets 21:36:58 0° 166° (SSE) 2,957 7.4 -10.9°
